This is the latest recevied weather packets stored in our database for station/object IW1PPB-3. If no packets are shown the sender has not sent any weather packets the latest 10 day(s).
| Time | Temp. | Humidity | Pressure | Rain* | Wind** | Luminosity | Snow |
|---|---|---|---|---|---|---|---|
| 1788513220 | 27.22° C | 77% | 1019.5 hPa | 0 mm | - | - | - |
| 1788512603 | 27.22° C | 76% | 1019.4 hPa | 0 mm | - | - | - |
| 1788512020 | 27.22° C | 77% | 1019.4 hPa | 0 mm | - | - | - |
| 1788511405 | 27.22° C | 76% | 1019.4 hPa | 0 mm | - | - | - |
| 1788510820 | 27.22° C | 75% | 1019.3 hPa | 0 mm | - | - | - |
| 1788510206 | 27.22° C | 74% | 1019.3 hPa | 0 mm | - | - | - |
| 1788509627 | 27.22° C | 73% | 1019.3 hPa | 0 mm | - | - | - |
| 1788509008 | 27.22° C | 74% | 1019.3 hPa | 0 mm | - | - | - |
| 1788508411 | 26.67° C | 72% | 1019.1 hPa | 0 mm | - | - | - |
| 1788507810 | 27.22° C | 71% | 1019 hPa | 0 mm | - | - | - |
| 1788507216 | 27.22° C | 72% | 1019 hPa | 0 mm | - | - | - |
| 1788506618 | 27.22° C | 70% | 1018.8 hPa | 0 mm | - | - | - |
| 1788506009 | 27.22° C | 70% | 1018.9 hPa | 0 mm | - | - | - |
| 1788505416 | 27.78° C | 69% | 1018.9 hPa | 0 mm | - | - | - |
| 1788504815 | 27.22° C | 70% | 1018.8 hPa | 0 mm | - | - | - |
| 1788504203 | 26.67° C | 71% | 1018.8 hPa | 0 mm | - | - | - |
| 1788503613 | 26.67° C | 73% | 1018.7 hPa | 0 mm | - | - | - |
| 1788503005 | 25.56° C | 75% | 1018.8 hPa | 0 mm | - | - | - |
| 1788502415 | 25° C | 74% | 1018.7 hPa | 0 mm | - | - | - |
| 1788501831 | 25° C | 74% | 1018.7 hPa | 0 mm | - | - | - |
| 1788501220 | 24.44° C | 76% | 1018.6 hPa | 0 mm | - | - | - |
| 1788500606 | 23.89° C | 77% | 1018.6 hPa | 0 mm | - | - | - |
| 1788500007 | 23.89° C | 78% | 1018.5 hPa | 0 mm | - | - | - |
| 1788499414 | 23.89° C | 78% | 1018.6 hPa | 0 mm | - | - | - |
| 1788498804 | 23.89° C | 78% | 1018.5 hPa | 0 mm | - | - | - |
* Rain latest hour (hover to see other rain measurements)
** Current wind speed in m/s (hover to see current wind gust speed)